| time (UTC) | temp F | wind direction | speed MPH | gust MPH | rain 1hr in | rain 24hr in | rain mn in | humidity % | barometer mb |
| 20260503184521 | 63 | 248 | 7.0 | 18.0 | 0.00 | 0.00 | 0.00 | 36 | 1008.7 |
| 20260503183016 | 62 | 230 | 6.0 | 20.0 | 0.00 | 0.00 | 0.00 | 36 | 1009.0 |
| 20260503181526 | 62 | 245 | 8.0 | 16.0 | 0.00 | 0.00 | 0.00 | 38 | 1009.3 |
| 20260503180015 | 61 | 250 | 8.0 | 20.0 | 0.00 | 0.00 | 0.00 | 38 | 1009.4 |
| 20260503174502 | 60 | 263 | 8.0 | 18.0 | 0.00 | 0.00 | 0.00 | 38 | 1009.7 |
| 20260503173110 | 59 | 288 | 8.0 | 15.0 | 0.00 | 0.00 | 0.00 | 39 | 1009.9 |
| 20260503171554 | 59 | 360 | 4.0 | 14.0 | 0.00 | 0.00 | 0.00 | 43 | 1010.2 |
| 20260503081515 | 35 | 285 | 0.0 | 2.0 | 0.00 | 0.00 | 0.00 | 31 | 1013.0 |
| 20260503071603 | 34 | 285 | 0.0 | 0.0 | 0.00 | 0.00 | 0.00 | 26 | 1013.1 |
| 20260503054538 | 36 | 285 | 0.0 | 0.0 | 0.00 | 0.00 | 0.00 | 22 | 1013.7 |
| 20260503053028 | 36 | 285 | 0.0 | 0.0 | 0.00 | 0.00 | 0.00 | 20 | 1013.7 |
| 20260503051524 | 36 | 285 | 0.0 | 0.0 | 0.00 | 0.00 | 0.00 | 15 | 1013.9 |
| 20260503050022 | 36 | 285 | 0.0 | 0.0 | 0.00 | 0.00 | 0.00 | 14 | 1013.9 |
| 20260503044514 | 36 | 285 | 0.0 | 0.0 | 0.00 | 0.00 | 0.00 | 16 | 1014.0 |
| 20260503043010 | 36 | 285 | 0.0 | 0.0 | 0.00 | 0.00 | 0.00 | 19 | 1013.9 |
| 20260503041506 | 36 | 285 | 0.0 | 0.0 | 0.00 | 0.00 | 0.00 | 22 | 1014.0 |
| 20260503040010 | 37 | 285 | 0.0 | 0.0 | 0.00 | 0.00 | 0.00 | 24 | 1014.2 |
| 20260503034601 | 37 | 285 | 0.0 | 0.0 | 0.00 | 0.00 | 0.00 | 27 | 1014.2 |
| 20260503033115 | 37 | 285 | 0.0 | 0.0 | 0.00 | 0.00 | 0.00 | 32 | 1014.2 |
| 20260503031551 | 37 | 285 | 0.0 | 0.0 | 0.00 | 0.00 | 0.00 | 36 | 1014.3 |
| 20260503030049 | 38 | 285 | 0.0 | 0.0 | 0.00 | 0.00 | 0.00 | 44 | 1014.2 |
| 20260503024543 | 38 | 284 | 0.0 | 0.0 | 0.00 | 0.00 | 0.00 | 48 | 1014.3 |
| 20260503023041 | 39 | 285 | 0.0 | 0.0 | 0.00 | 0.00 | 0.00 | 53 | 1014.4 |
| 20260503021534 | 40 | 285 | 0.0 | 0.0 | 0.00 | 0.00 | 0.00 | 56 | 1014.4 |
| 20260503020030 | 40 | 285 | 0.0 | 0.0 | 0.00 | 0.00 | 0.00 | 57 | 1014.3 |
| 20260503014529 | 41 | 285 | 0.0 | 0.0 | 0.00 | 0.00 | 0.00 | 57 | 1014.3 |
| 20260503013021 | 43 | 285 | 0.0 | 0.0 | 0.00 | 0.00 | 0.00 | 56 | 1014.2 |
| 20260503011526 | 44 | 285 | 0.0 | 0.0 | 0.00 | 0.00 | 0.00 | 54 | 1014.2 |
| 20260503010011 | 45 | 285 | 0.0 | 0.0 | 0.00 | 0.00 | 0.00 | 53 | 1014.1 |
| 20260503004507 | 46 | 285 | 0.0 | 0.0 | 0.00 | 0.00 | 0.00 | 48 | 1014.1 |
| 20260503003003 | 46 | 285 | 0.0 | 0.0 | 0.00 | 0.00 | 0.00 | 45 | 1014.0 |
| 20260503001606 | 47 | 284 | 0.0 | 2.0 | 0.00 | 0.00 | 0.00 | 44 | 1013.9 |
| 20260503000056 | 48 | 284 | 0.0 | 4.0 | 0.00 | 0.00 | 0.00 | 44 | 1014.0 |
| 20260502234555 | 47 | 292 | 1.0 | 8.0 | 0.00 | 0.00 | 0.00 | 44 | 1013.9 |
| 20260502233048 | 47 | 309 | 1.0 | 7.0 | 0.00 | 0.00 | 0.00 | 43 | 1014.0 |
| 20260502231544 | 47 | 360 | 2.0 | 6.0 | 0.00 | 0.00 | 0.00 | 43 | 1014.1 |
| 20260502230043 | 47 | 297 | 0.0 | 5.0 | 0.00 | 0.00 | 0.00 | 44 | 1014.1 |
| 20260502224543 | 47 | 360 | 1.0 | 6.0 | 0.00 | 0.00 | 0.00 | 43 | 1014.1 |
| 20260502223043 | 47 | 324 | 2.0 | 11.0 | 0.00 | 0.00 | 0.00 | 43 | 1014.1 |
| 20260502221542 | 48 | 293 | 4.0 | 9.0 | 0.00 | 0.00 | 0.00 | 41 | 1014.1 |
| 20260502220051 | 48 | 322 | 1.0 | 10.0 | 0.00 | 0.00 | 0.00 | 44 | 1014.1 |
| 20260502214533 | 48 | 309 | 3.0 | 10.0 | 0.00 | 0.00 | 0.00 | 43 | 1014.1 |
| 20260502213034 | 47 | 292 | 2.0 | 7.0 | 0.00 | 0.00 | 0.00 | 43 | 1014.2 |
| 20260502211522 | 47 | 274 | 4.0 | 12.0 | 0.00 | 0.00 | 0.00 | 44 | 1014.3 |
| 20260502210022 | 47 | 310 | 2.0 | 14.0 | 0.00 | 0.00 | 0.00 | 44 | 1014.3 |
| 20260502204514 | 47 | 325 | 3.0 | 10.0 | 0.00 | 0.00 | 0.00 | 43 | 1014.3 |
| 20260502203010 | 47 | 290 | 2.0 | 11.0 | 0.00 | 0.00 | 0.00 | 42 | 1014.4 |
| 20260502201505 | 47 | 312 | 0.0 | 5.0 | 0.00 | 0.00 | 0.00 | 43 | 1014.5 |
| 20260502200001 | 47 | 313 | 5.0 | 10.0 | 0.00 | 0.00 | 0.00 | 42 | 1014.7 |
| 20260502194558 | 47 | 298 | 3.0 | 11.0 | 0.00 | 0.00 | 0.00 | 42 | 1014.7 |
| 20260502193052 | 47 | 281 | 2.0 | 8.0 | 0.00 | 0.00 | 0.00 | 42 | 1014.9 |
| 20260502191547 | 46 | 296 | 1.0 | 11.0 | 0.00 | 0.00 | 0.00 | 42 | 1015.1 |
| 20260502190049 | 47 | 304 | 4.0 | 10.0 | 0.00 | 0.00 | 0.00 | 42 | 1015.3 |